TimeEST,TemperatureF,Dew PointF,Humidity,Sea Level PressureIn,VisibilityMPH,Wind Direction,Wind SpeedMPH,Gust SpeedMPH,PrecipitationIn,Events,Conditions,WindDirDegrees,DateUTC
12:14 AM,14.9,5.9,68,30.53,10.0,NW,4.6,-,N/A,,Clear,320,2013-11-24 05:14:00
12:34 AM,14.9,5.9,68,30.53,10.0,NW,5.8,-,N/A,,Clear,320,2013-11-24 05:34:00
12:53 AM,14.9,6.3,69,30.52,10.0,NW,4.6,-,N/A,,Clear,310,2013-11-24 05:53:00
1:14 AM,14.5,6.6,71,30.53,10.0,WNW,5.8,-,N/A,,Clear,300,2013-11-24 06:14:00
1:34 AM,14.0,6.4,72,30.53,10.0,WNW,3.5,-,N/A,,Clear,290,2013-11-24 06:34:00
1:54 AM,13.8,5.9,71,30.53,10.0,WNW,5.8,-,N/A,,Clear,290,2013-11-24 06:54:00
2:14 AM,12.9,5.9,74,30.53,10.0,WNW,4.6,-,N/A,,Clear,300,2013-11-24 07:14:00
2:33 AM,13.3,5.7,72,30.54,10.0,NW,3.5,-,N/A,,Clear,310,2013-11-24 07:33:00
2:54 AM,13.1,5.5,72,30.54,10.0,WNW,4.6,-,N/A,,Clear,300,2013-11-24 07:54:00
3:14 AM,13.1,5.5,72,30.53,10.0,Calm,Calm,-,N/A,,Clear,0,2013-11-24 08:14:00
3:33 AM,12.6,5.0,72,30.53,10.0,WNW,4.6,-,N/A,,Clear,290,2013-11-24 08:33:00
3:54 AM,10.4,4.5,77,30.54,10.0,West,5.8,-,N/A,,Clear,260,2013-11-24 08:54:00
4:13 AM,9.5,5.0,82,30.54,10.0,West,4.6,-,N/A,,Scattered Clouds,270,2013-11-24 09:13:00
4:34 AM,11.1,5.7,79,30.53,10.0,WNW,3.5,-,N/A,,Clear,290,2013-11-24 09:34:00
4:54 AM,10.9,5.4,78,30.53,10.0,West,4.6,-,N/A,,Clear,280,2013-11-24 09:54:00
5:14 AM,11.5,6.6,81,30.54,10.0,West,4.6,-,N/A,,Mostly Cloudy,270,2013-11-24 10:14:00
5:34 AM,13.3,7.7,78,30.54,10.0,West,4.6,-,N/A,,Overcast,260,2013-11-24 10:34:00
5:54 AM,14.0,8.2,78,30.54,10.0,West,4.6,-,N/A,,Overcast,260,2013-11-24 10:54:00
6:14 AM,14.4,8.4,77,30.54,10.0,West,4.6,-,N/A,,Overcast,260,2013-11-24 11:14:00
6:34 AM,14.5,8.4,77,30.54,10.0,West,4.6,-,N/A,,Overcast,270,2013-11-24 11:34:00
6:54 AM,14.5,8.6,77,30.54,10.0,West,4.6,-,N/A,,Overcast,260,2013-11-24 11:54:00
7:14 AM,13.8,8.4,79,30.55,10.0,West,5.8,-,N/A,,Overcast,260,2013-11-24 12:14:00
7:34 AM,13.5,8.8,82,30.56,10.0,West,4.6,-,N/A,,Overcast,260,2013-11-24 12:34:00
7:54 AM,15.3,9.7,79,30.57,10.0,West,5.8,-,N/A,,Overcast,260,2013-11-24 12:54:00
8:13 AM,15.6,10.4,80,30.57,10.0,West,5.8,-,N/A,,Overcast,260,2013-11-24 13:13:00
8:34 AM,16.2,10.9,80,30.57,10.0,West,4.6,-,N/A,,Overcast,270,2013-11-24 13:34:00
8:54 AM,16.9,11.5,79,30.58,10.0,West,5.8,-,N/A,,Overcast,270,2013-11-24 13:54:00
9:13 AM,18.0,12.0,78,30.58,10.0,West,5.8,-,N/A,,Overcast,270,2013-11-24 14:13:00
9:34 AM,18.3,11.3,74,30.59,10.0,WNW,8.1,-,N/A,,Overcast,300,2013-11-24 14:34:00
9:54 AM,19.8,11.3,70,30.59,10.0,WNW,8.1,-,N/A,,Overcast,290,2013-11-24 14:54:00
10:13 AM,19.8,10.0,66,30.58,10.0,West,9.2,-,N/A,,Overcast,270,2013-11-24 15:13:00
10:34 AM,20.5,10.2,65,30.59,10.0,WNW,5.8,-,N/A,,Overcast,300,2013-11-24 15:34:00
10:54 AM,21.2,9.1,60,30.59,10.0,NW,5.8,-,N/A,,Overcast,310,2013-11-24 15:54:00
11:13 AM,21.0,8.1,57,30.59,10.0,WNW,5.8,-,N/A,,Overcast,290,2013-11-24 16:13:00
11:34 AM,21.6,9.5,60,30.58,10.0,WNW,6.9,-,N/A,,Overcast,290,2013-11-24 16:34:00
11:54 AM,21.2,8.6,58,30.57,10.0,West,6.9,-,N/A,,Overcast,270,2013-11-24 16:54:00
12:13 PM,22.1,9.0,57,30.56,10.0,West,9.2,-,N/A,,Overcast,280,2013-11-24 17:13:00
12:34 PM,23.5,9.3,55,30.55,10.0,West,11.5,17.3,N/A,,Overcast,270,2013-11-24 17:34:00
12:54 PM,22.6,9.9,58,30.54,10.0,WNW,8.1,-,N/A,Snow,Light Snow,290,2013-11-24 17:54:00
1:14 PM,22.5,12.2,65,30.54,10.0,WNW,8.1,-,N/A,Snow,Light Snow,290,2013-11-24 18:14:00
1:34 PM,22.8,12.4,64,30.53,10.0,West,9.2,-,N/A,Snow,Light Snow,270,2013-11-24 18:34:00
1:54 PM,22.8,13.1,66,30.52,10.0,WSW,10.4,-,N/A,,Overcast,240,2013-11-24 18:54:00
2:14 PM,22.6,13.5,68,30.51,10.0,West,10.4,-,N/A,Snow,Light Snow,260,2013-11-24 19:14:00
2:34 PM,22.8,13.3,67,30.51,10.0,West,8.1,-,N/A,Snow,Light Snow,260,2013-11-24 19:34:00
2:53 PM,22.8,13.3,67,30.51,10.0,WSW,10.4,-,N/A,Snow,Light Snow,250,2013-11-24 19:53:00
3:14 PM,22.5,14.4,71,30.51,7.0,West,10.4,-,N/A,Snow,Light Snow,270,2013-11-24 20:14:00
3:34 PM,23.0,14.2,69,30.51,10.0,West,10.4,-,N/A,,Overcast,260,2013-11-24 20:34:00
3:53 PM,22.8,13.3,67,30.51,10.0,WNW,8.1,-,N/A,,Overcast,290,2013-11-24 20:53:00
4:14 PM,22.8,11.7,62,30.50,10.0,WNW,8.1,-,N/A,,Overcast,290,2013-11-24 21:14:00
4:34 PM,22.6,12.0,64,30.50,10.0,WSW,8.1,-,N/A,,Overcast,250,2013-11-24 21:34:00
4:53 PM,22.1,13.5,69,30.50,10.0,West,10.4,-,N/A,Snow,Light Snow,270,2013-11-24 21:53:00
5:14 PM,20.3,14.7,79,30.49,10.0,WSW,4.6,-,N/A,,Mostly Cloudy,240,2013-11-24 22:14:00
5:33 PM,19.2,14.5,82,30.49,10.0,WSW,5.8,-,N/A,,Scattered Clouds,240,2013-11-24 22:33:00
5:54 PM,18.5,14.0,83,30.48,10.0,SW,3.5,-,N/A,,Clear,220,2013-11-24 22:54:00
6:14 PM,18.3,13.5,81,30.48,10.0,SW,3.5,-,N/A,,Clear,220,2013-11-24 23:14:00
6:33 PM,18.5,13.8,82,30.47,10.0,SSW,3.5,-,N/A,,Clear,200,2013-11-24 23:33:00
6:54 PM,18.5,13.5,81,30.47,10.0,SW,3.5,-,N/A,,Clear,220,2013-11-24 23:54:00
7:14 PM,18.1,11.3,75,30.46,10.0,SW,3.5,-,N/A,,Clear,220,2013-11-25 00:14:00
7:33 PM,17.6,10.2,73,30.46,10.0,SW,3.5,-,N/A,,Clear,230,2013-11-25 00:33:00
7:54 PM,18.5,10.9,72,30.45,10.0,Calm,Calm,-,N/A,,Clear,0,2013-11-25 00:54:00
8:14 PM,19.0,10.8,70,30.45,10.0,SW,4.6,-,N/A,,Clear,230,2013-11-25 01:14:00
8:33 PM,18.5,10.4,71,30.43,10.0,SSW,6.9,-,N/A,,Clear,210,2013-11-25 01:33:00
8:54 PM,18.0,10.4,72,30.43,10.0,SW,4.6,-,N/A,,Clear,220,2013-11-25 01:54:00
9:14 PM,17.8,10.2,72,30.43,10.0,SSW,4.6,-,N/A,,Clear,210,2013-11-25 02:14:00
9:33 PM,17.6,10.2,73,30.43,10.0,SSW,4.6,-,N/A,,Clear,210,2013-11-25 02:33:00
9:54 PM,17.6,10.0,72,30.41,10.0,SSW,5.8,-,N/A,,Clear,210,2013-11-25 02:54:00
10:14 PM,17.4,9.5,71,30.41,10.0,SSW,5.8,-,N/A,,Clear,200,2013-11-25 03:14:00
10:34 PM,17.6,9.1,69,30.40,10.0,South,5.8,-,N/A,,Clear,190,2013-11-25 03:34:00
10:54 PM,17.6,8.6,68,30.40,10.0,SSW,8.1,-,N/A,,Clear,200,2013-11-25 03:54:00
11:14 PM,17.6,8.4,67,30.39,10.0,SSW,6.9,-,N/A,,Clear,200,2013-11-25 04:14:00
11:34 PM,17.6,7.5,65,30.38,10.0,SSW,9.2,-,N/A,,Clear,210,2013-11-25 04:34:00
11:54 PM,17.8,7.3,64,30.37,10.0,SSW,8.1,-,N/A,,Clear,210,2013-11-25 04:54:00